SDM6325 ULLI-UMKK

Flight info

Callsign SDM6325
Flight time N/A
Altitude 38000
Route UTETA DCT PISIS DCT ARANS/N0460F380 DCT PIDIN DCT PISIM DCT PIRUX DCT PIVAX/N0453F370 DCT GARSO DCT AGONA DCT TURIP
Aircraft A319/M-SDE3FGHIRWY/LB1

Departure

Time 2026-05-05 13:23
Airport Pulkovo Airport (ULLI)

Arrival

Time N/A
Airport Khrabrovo Airport (UMKK)
Time Latitude Longitude Altitude Speed Heading
2026-05-05 12:55 59.79641 30.26619 87 ft 0 kts 106°
2026-05-05 13:08 59.79642 30.26619 87 ft 0 kts 107°
2026-05-05 13:08 59.79646 30.26592 87 ft 2 kts 106°
2026-05-05 13:08 59.79650 30.26563 87 ft 2 kts 106°
2026-05-05 13:08 59.79654 30.26535 87 ft 2 kts 106°
2026-05-05 13:09 59.79659 30.26506 87 ft 2 kts 106°
2026-05-05 13:09 59.79663 30.26478 87 ft 2 kts 107°
2026-05-05 13:09 59.79666 30.26449 87 ft 2 kts 91°
2026-05-05 13:09 59.79665 30.26420 87 ft 2 kts 69°
2026-05-05 13:10 59.79657 30.26394 87 ft 2 kts 47°
2026-05-05 13:10 59.79646 30.26376 87 ft 2 kts 25°
2026-05-05 13:10 59.79631 30.26367 87 ft 2 kts 14°
2026-05-05 13:10 59.79617 30.26359 87 ft 2 kts 17°
2026-05-05 13:11 59.79612 30.26356 87 ft 0 kts 16°
2026-05-05 13:13 59.79613 30.26356 87 ft 0 kts 16°
2026-05-05 13:14 59.79626 30.26364 87 ft 3 kts 16°
2026-05-05 13:14 59.79653 30.26380 87 ft 4 kts 16°
2026-05-05 13:14 59.79696 30.26405 87 ft 8 kts 16°
2026-05-05 13:14 59.79758 30.26441 87 ft 9 kts 16°
2026-05-05 13:15 59.79826 30.26481 87 ft 10 kts 16°
2026-05-05 13:15 59.79900 30.26525 87 ft 11 kts 16°
2026-05-05 13:15 59.79978 30.26571 87 ft 11 kts 16°
2026-05-05 13:15 59.80060 30.26619 87 ft 12 kts 16°
2026-05-05 13:16 59.80145 30.26670 87 ft 13 kts 16°
2026-05-05 13:16 59.80231 30.26720 87 ft 11 kts 15°
2026-05-05 13:16 59.80309 30.26766 86 ft 10 kts 16°
2026-05-05 13:16 59.80364 30.26797 87 ft 7 kts 15°
2026-05-05 13:17 59.80397 30.26863 87 ft 7 kts 92°
2026-05-05 13:17 59.80381 30.26979 87 ft 9 kts 107°
2026-05-05 13:17 59.80360 30.27116 87 ft 11 kts 106°
2026-05-05 13:17 59.80337 30.27273 87 ft 12 kts 105°
2026-05-05 13:18 59.80313 30.27443 87 ft 13 kts 105°
2026-05-05 13:18 59.80286 30.27627 86 ft 14 kts 109°
2026-05-05 13:18 59.80255 30.27819 87 ft 15 kts 105°
2026-05-05 13:18 59.80225 30.28021 86 ft 15 kts 105°
2026-05-05 13:19 59.80193 30.28232 86 ft 16 kts 106°
2026-05-05 13:19 59.80158 30.28449 86 ft 16 kts 108°
2026-05-05 13:19 59.80127 30.28674 86 ft 17 kts 103°
2026-05-05 13:19 59.80094 30.28906 86 ft 17 kts 106°
2026-05-05 13:20 59.80057 30.29140 86 ft 17 kts 108°
2026-05-05 13:20 59.80022 30.29380 86 ft 18 kts 105°
2026-05-05 13:20 59.79985 30.29617 86 ft 17 kts 107°
2026-05-05 13:20 59.79956 30.29821 86 ft 13 kts 105°
2026-05-05 13:21 59.79939 30.29986 86 ft 10 kts 85°
2026-05-05 13:21 59.79975 30.30101 86 ft 10 kts 44°
2026-05-05 13:21 59.80024 30.30209 86 ft 10 kts 47°
2026-05-05 13:21 59.80078 30.30292 86 ft 8 kts 18°
2026-05-05 13:22 59.80124 30.30240 86 ft 9 kts 287°
2026-05-05 13:22 59.80150 30.30066 86 ft 29 kts 287°
2026-05-05 13:22 59.80287 30.29194 86 ft 100 kts 287°
2026-05-05 13:22 59.80538 30.27482 124 ft 152 kts 285°
2026-05-05 13:23 59.80846 30.25462 705 ft 155 kts 287°
2026-05-05 13:23 59.81124 30.23448 1435 ft 155 kts 285°
2026-05-05 13:23 59.81426 30.21435 2231 ft 154 kts 285°
2026-05-05 13:23 59.81766 30.19424 2875 ft 158 kts 284°
2026-05-05 13:24 59.82127 30.17282 3346 ft 171 kts 283°
2026-05-05 13:24 59.82496 30.14942 3762 ft 188 kts 283°
2026-05-05 13:24 59.82900 30.12315 4255 ft 203 kts 282°
2026-05-05 13:24 59.83282 30.09471 4719 ft 221 kts 281°
2026-05-05 13:25 59.83689 30.06414 5206 ft 239 kts 281°
2026-05-05 13:25 59.84148 30.03119 5891 ft 249 kts 281°
2026-05-05 13:25 59.84591 29.99779 6739 ft 250 kts 275°
2026-05-05 13:25 59.84658 29.96291 7680 ft 248 kts 262°
2026-05-05 13:26 59.84352 29.92987 8602 ft 246 kts 256°
2026-05-05 13:26 59.83977 29.89740 9525 ft 245 kts 256°
2026-05-05 13:26 59.83592 29.86450 10328 ft 248 kts 256°
2026-05-05 13:26 59.83192 29.83022 10754 ft 264 kts 257°
2026-05-05 13:27 59.82760 29.79305 11124 ft 283 kts 256°
2026-05-05 13:27 59.82308 29.75430 11470 ft 300 kts 256°
2026-05-05 13:27 59.81820 29.71265 11785 ft 316 kts 256°
2026-05-05 13:27 59.81308 29.66898 12295 ft 325 kts 256°
2026-05-05 13:28 59.80799 29.62562 13029 ft 327 kts 256°
2026-05-05 13:28 59.80276 29.58130 13716 ft 329 kts 256°
2026-05-05 13:28 59.79742 29.53623 14382 ft 331 kts 256°
2026-05-05 13:28 59.79198 29.49052 15063 ft 334 kts 256°
2026-05-05 13:29 59.78654 29.44490 15685 ft 337 kts 256°
2026-05-05 13:29 59.78113 29.39966 16284 ft 340 kts 256°
2026-05-05 13:29 59.77565 29.35408 16852 ft 342 kts 256°
2026-05-05 13:29 59.77003 29.30747 17403 ft 345 kts 256°
2026-05-05 13:30 59.76413 29.25853 18011 ft 347 kts 256°
2026-05-05 13:30 59.75852 29.21237 18534 ft 350 kts 255°
2026-05-05 13:30 59.75277 29.16520 19013 ft 353 kts 256°
2026-05-05 13:30 59.74707 29.11850 19537 ft 355 kts 255°
2026-05-05 13:31 59.74187 29.07040 20024 ft 358 kts 261°
2026-05-05 13:31 59.74066 29.02102 20496 ft 363 kts 269°
2026-05-05 13:31 59.74373 28.97095 20948 ft 369 kts 277°
2026-05-05 13:31 59.75066 28.92153 21404 ft 375 kts 282°
2026-05-05 13:32 59.75844 28.87282 21798 ft 377 kts 283°
2026-05-05 13:32 59.76648 28.82323 22209 ft 380 kts 283°